Change the Weather History Date:

Friday, March 14, 2014

  Actual Average (KVPZ) Record (KVPZ)
Temperature  
Mean Temperature 40 °F 37 °F  
Max Temperature 49 °F 46 °F 82 °F (2012)
Min Temperature 31 °F 28 °F 7 °F (1895)
Degree Days  
Heating Degree Days 25 28  
Month to date heating degree days 425  
Since 1 July heating degree days 5157  
Cooling Degree Days 0 0  
Month to date cooling degree days 0  
Year to date cooling degree days 0  
Moisture  
Dew Point 30 °F    
Average Humidity 68    
Maximum Humidity 80    
Minimum Humidity 50    
Precipitation  
Precipitation 0.00 in 0.07 in 2.18 in (1944)
Month to date precipitation 1.04  
Year to date precipitation 4.21  
Sea Level Pressure  
Sea Level Pressure 29.74 in    
Wind  
Wind Speed 12 mph (SW)    
Max Wind Speed 24 mph    
Max Gust Speed 34 mph    
Visibility 10 miles    
Events      
T = Trace of Precipitation, MM = Missing Value Source: NWS Daily Summary

Daily Weather History Graph

Daily Weather History Graph

Search for Another Location

Airport or City:

Trip Planner

Search our weather history database for the weather conditions in past years. The results will help you decide how hot, cold, wet, or windy it might be!

Date:

Astronomy

Mar. 14, 2014 Rise Set
Actual Time 7:00 AM CDT 6:52 PM CDT
Civil Twilight 6:32 AM CDT 7:20 PM CDT
Nautical Twilight 6:00 AM CDT 7:52 PM CDT
Astronomical Twilight 5:28 AM CDT 8:25 PM CDT
Moon 5:13 PM CDT (3/14) 5:41 AM CDT (3/14)
Length of Visible Light 12h 47m
Length of Day
11h 52m
Waxing Gibbous, 96% of the Moon is Illuminated
Mar 14
Waxing Gibbous
Mar 16
Full
Mar 23
Last Quarter
Mar 30
New
Apr 7
First Quarter

Hourly Weather History & Observations

Time (CDT) Temp. Windchill Dew Point Humidity Pressure Visibility Wind Dir Wind Speed Gust Speed Precip Events Conditions
12:15 AM 32.4 °F 24.0 °F 26.2 °F 78% 29.89 in 10.0 mi SSW 10.4 mph - N/A   Clear
12:35 AM 32.9 °F 23.7 °F 26.2 °F 76% 29.88 in 10.0 mi SSW 12.7 mph - N/A   Clear
12:55 AM 32.9 °F 24.7 °F 26.2 °F 76% 29.88 in 10.0 mi SSW 10.4 mph 16.1 mph N/A   Clear
1:15 AM 32.4 °F 25.3 °F 26.1 °F 78% 29.88 in 10.0 mi SSW 8.1 mph - N/A   Clear
1:35 AM 32.0 °F 25.6 °F 25.7 °F 78% 29.87 in 10.0 mi South 6.9 mph - N/A   Clear
1:55 AM 32.0 °F 25.6 °F 25.7 °F 78% 29.86 in 10.0 mi South 6.9 mph - N/A   Clear
2:15 AM 31.6 °F 26.0 °F 25.7 °F 79% 29.86 in 10.0 mi South 5.8 mph - N/A   Clear
2:35 AM 31.6 °F 26.0 °F 25.7 °F 79% 29.85 in 10.0 mi South 5.8 mph - N/A   Clear
2:55 AM 31.5 °F 25.8 °F 25.7 °F 79% 29.83 in 10.0 mi South 5.8 mph - N/A   Clear
3:15 AM 31.8 °F 25.4 °F 25.7 °F 78% 29.82 in 10.0 mi South 6.9 mph - N/A   Clear
3:35 AM 31.6 °F 25.1 °F 25.9 °F 79% 29.81 in 10.0 mi South 6.9 mph - N/A   Clear
3:55 AM 32.0 °F 24.8 °F 26.2 °F 79% 29.80 in 10.0 mi South 8.1 mph - N/A   Clear
4:15 AM 32.0 °F 24.8 °F 26.4 °F 80% 29.79 in 10.0 mi South 8.1 mph - N/A   Clear
4:35 AM 32.7 °F 26.4 °F 26.8 °F 79% 29.78 in 10.0 mi South 6.9 mph - N/A   Clear
4:55 AM 33.1 °F 26.1 °F 27.0 °F 78% 29.77 in 10.0 mi South 8.1 mph - N/A   Clear
5:15 AM 33.3 °F 25.7 °F 27.3 °F 79% 29.76 in 10.0 mi South 9.2 mph - N/A   Clear
5:35 AM 33.4 °F 26.6 °F 27.5 °F 79% 29.76 in 10.0 mi South 8.1 mph - N/A   Clear
5:55 AM 33.8 °F 26.4 °F 27.5 °F 78% 29.75 in 10.0 mi SSW 9.2 mph - N/A   Clear
6:15 AM 33.4 °F 25.9 °F 27.5 °F 79% 29.75 in 10.0 mi SSW 9.2 mph - N/A   Clear
6:35 AM 34.0 °F 27.2 °F 28.0 °F 79% 29.74 in 10.0 mi SSW 8.1 mph - N/A   Clear
6:55 AM 34.9 °F 27.7 °F 28.4 °F 77% 29.74 in 10.0 mi SSW 9.2 mph - N/A   Clear
7:15 AM 36.1 °F 28.2 °F 28.4 °F 73% 29.73 in 10.0 mi SSW 11.5 mph 17.3 mph N/A   Clear
7:35 AM 37.2 °F 27.9 °F 28.8 °F 71% 29.73 in 10.0 mi SSW 16.1 mph 19.6 mph N/A   Clear
7:55 AM 37.9 °F 30.0 °F 28.9 °F 70% 29.72 in 10.0 mi SSW 12.7 mph 18.4 mph N/A   Clear
8:15 AM 38.8 °F 30.4 °F 28.9 °F 68% 29.71 in 10.0 mi SSW 15.0 mph 19.6 mph N/A   Clear
8:35 AM 39.2 °F 30.5 °F 28.8 °F 66% 29.71 in 10.0 mi SSW 16.1 mph 19.6 mph N/A   Clear
8:55 AM 40.1 °F 31.6 °F 29.1 °F 65% 29.71 in 10.0 mi SSW 16.1 mph - N/A   Clear
9:15 AM 40.5 °F 32.1 °F 29.1 °F 64% 29.71 in 10.0 mi SSW 16.1 mph 21.9 mph N/A   Clear
9:35 AM 41.4 °F 32.7 °F 29.3 °F 62% 29.70 in 10.0 mi SSW 18.4 mph 25.3 mph N/A   Clear
9:55 AM 41.5 °F 33.2 °F 29.3 °F 62% 29.69 in 10.0 mi SW 17.3 mph 26.5 mph N/A   Clear
10:15 AM 41.9 °F 34.6 °F 29.3 °F 61% 29.68 in 10.0 mi SSW 13.8 mph - N/A   Clear
10:35 AM 42.1 °F 34.2 °F 29.5 °F 61% 29.67 in 10.0 mi SSW 16.1 mph 24.2 mph N/A   Clear
10:55 AM 42.8 °F 33.5 °F 29.8 °F 60% 29.66 in 10.0 mi SSW 23.0 mph 28.8 mph N/A   Clear
11:15 AM 43.5 °F 35.2 °F 29.8 °F 59% 29.66 in 10.0 mi SW 19.6 mph 26.5 mph N/A   Clear
11:35 AM 43.9 °F 35.4 °F 30.2 °F 59% 29.65 in 10.0 mi SSW 20.7 mph 25.3 mph N/A   Clear
11:55 AM 44.2 °F 36.7 °F 30.6 °F 59% 29.64 in 10.0 mi SW 17.3 mph 26.5 mph N/A   Clear
12:15 PM 44.1 °F 35.2 °F 30.9 °F 60% 29.63 in 10.0 mi SW 23.0 mph 28.8 mph N/A   Clear
12:35 PM 44.4 °F 35.9 °F 31.6 °F 61% 29.62 in 10.0 mi SW 21.9 mph 31.1 mph N/A   Clear
12:55 PM 44.8 °F 36.2 °F 32.0 °F 61% 29.63 in 10.0 mi SW 23.0 mph 28.8 mph N/A   Clear
1:15 PM 45.5 °F 37.6 °F 33.1 °F 62% 29.62 in 10.0 mi SW 20.7 mph 27.6 mph N/A   Clear
1:35 PM 46.0 °F 38.5 °F 34.2 °F 63% 29.62 in 10.0 mi SW 19.6 mph 26.5 mph N/A   Clear
1:55 PM 47.5 °F - 34.5 °F 61% 29.62 in 10.0 mi WSW 17.3 mph 27.6 mph N/A   Clear
2:15 PM 48.4 °F - 34.0 °F 58% 29.61 in 10.0 mi WSW 19.6 mph 31.1 mph N/A   Clear
2:35 PM 48.9 °F - 34.0 °F 56% 29.62 in 10.0 mi WSW 17.3 mph 28.8 mph N/A   Clear
2:55 PM 49.1 °F - 34.0 °F 56% 29.62 in 10.0 mi WSW 17.3 mph 25.3 mph N/A   Clear
3:15 PM 49.3 °F - 34.3 °F 56% 29.62 in 10.0 mi WSW 16.1 mph 21.9 mph N/A   Scattered Clouds
3:35 PM 49.3 °F - 34.2 °F 56% 29.63 in 10.0 mi WSW 15.0 mph 21.9 mph N/A   Mostly Cloudy
3:55 PM 49.1 °F - 34.5 °F 57% 29.64 in 10.0 mi WSW 13.8 mph 18.4 mph N/A   Mostly Cloudy
4:15 PM 49.1 °F - 33.8 °F 56% 29.64 in 10.0 mi WSW 13.8 mph 21.9 mph N/A   Scattered Clouds
4:35 PM 49.3 °F - 32.0 °F 51% 29.65 in 10.0 mi West 19.6 mph 24.2 mph N/A   Clear
4:55 PM 48.6 °F - 30.4 °F 50% 29.66 in 10.0 mi West 21.9 mph 32.2 mph N/A   Clear
5:15 PM 48.2 °F - 31.5 °F 52% 29.67 in 10.0 mi West 16.1 mph 25.3 mph N/A   Clear
5:35 PM 47.5 °F - 32.0 °F 55% 29.68 in 10.0 mi West 17.3 mph 23.0 mph N/A   Clear
5:55 PM 47.3 °F - 31.6 °F 55% 29.70 in 10.0 mi West 24.2 mph 34.5 mph N/A   Clear
6:15 PM 45.5 °F 38.1 °F 31.3 °F 58% 29.72 in 10.0 mi West 18.4 mph 25.3 mph N/A   Clear
6:35 PM 44.4 °F 36.1 °F 31.8 °F 61% 29.74 in 10.0 mi West 20.7 mph 26.5 mph N/A   Clear
6:55 PM 43.2 °F 35.9 °F 30.0 °F 60% 29.75 in 10.0 mi West 15.0 mph 27.6 mph N/A   Clear
7:15 PM 41.9 °F 34.0 °F 29.8 °F 62% 29.77 in 10.0 mi West 16.1 mph 21.9 mph N/A   Clear
7:35 PM 40.6 °F 34.3 °F 30.0 °F 66% 29.78 in 10.0 mi West 10.4 mph 19.6 mph N/A   Clear
7:55 PM 41.4 °F 33.3 °F 30.2 °F 65% 29.79 in 10.0 mi West 16.1 mph 24.2 mph N/A   Scattered Clouds
8:15 PM 40.6 °F 34.3 °F 30.4 °F 67% 29.80 in 10.0 mi WNW 10.4 mph 17.3 mph N/A   Scattered Clouds
8:35 PM 39.7 °F 34.9 °F 30.4 °F 69% 29.81 in 10.0 mi WNW 6.9 mph - N/A   Scattered Clouds
8:55 PM 39.2 °F 35.0 °F 30.7 °F 72% 29.82 in 10.0 mi WNW 5.8 mph - N/A   Scattered Clouds
9:15 PM 37.8 °F 31.3 °F 30.6 °F 75% 29.82 in 10.0 mi West 9.2 mph - N/A   Clear
9:35 PM 37.9 °F 30.9 °F 30.4 °F 74% 29.83 in 10.0 mi West 10.4 mph - N/A   Clear
9:55 PM 38.3 °F 31.4 °F 30.2 °F 73% 29.83 in 10.0 mi West 10.4 mph 18.4 mph N/A   Clear
10:15 PM 37.8 °F 30.2 °F 30.0 °F 74% 29.83 in 10.0 mi West 11.5 mph - N/A   Clear
10:35 PM 37.4 °F 29.8 °F 30.0 °F 75% 29.84 in 10.0 mi West 11.5 mph - N/A   Clear
10:55 PM 37.4 °F 28.9 °F 30.0 °F 75% 29.84 in 10.0 mi West 13.8 mph - N/A   Clear
11:15 PM 37.2 °F 28.7 °F 29.8 °F 75% 29.85 in 10.0 mi West 13.8 mph 18.4 mph N/A   Clear
11:35 PM 36.7 °F 29.4 °F 29.3 °F 75% 29.84 in 10.0 mi West 10.4 mph - N/A   Clear
11:55 PM 36.7 °F 28.9 °F 29.3 °F 75% 29.85 in 10.0 mi West 11.5 mph - N/A   Clear